Regional Weather Roundup
Issued by NWS

Home | Current Version | Previous Version | Graphics & Text | Print | Product List | Glossary On
Versions: 1 2 3 4 5 6 7 8 9 10 11 12 13 14 15 16 17 18 19 20 21 22 23 24 25 26 27 28 29 30 31 32 33 34 35 36 37 38 39 40 41 42 43 44 45 46 47 48 49 50
406
ASUS45 KCYS 222110
RWRWY

WYOMING REGIONAL WEATHER ROUNDUP
NATIONAL WEATHER SERVICE CHEYENNE WY
300 PM MDT THU JUN 22 2017

NOTE:  "FAIR" INDICATES FEW OR NO CLOUDS BELOW 12,000 FEET
WITH NO SIGNIFICANT WEATHER AND/OR OBSTRUCTIONS TO VISIBILITY.

WYZ001-222200-
YELLOWSTONE NATIONAL PARK

CITY           SKY/WX    TMP DP  RH WIND       PRES   REMARKS
LK YELLOWSTONE   N/A     62  13  14 W10G18    30.20R
W YELLOWSTONE  NOT AVBL

$$
WYZ002>013-054>058-071-098>099-222200-
NORTHERN WYOMING

CITY           SKY/WX    TMP DP  RH WIND       PRES   REMARKS
JACKSON        SUNNY     70  19  14 SW7       30.14R
CODY           FAIR      70  31  23 NE16      30.05S
GREYBULL       FAIR      79  26  14 N14G25    29.94F
WORLAND        FAIR      78  31  17 N16       29.96S
SHERIDAN       PTSUNNY   73  39  29 N12       30.01S
BUFFALO        FAIR      68  40  35 N13G18    30.05S
GILLETTE       FAIR      74  37  26 NW15G21   29.99F
NEWCASTLE      FAIR      72  34  25 NW12G24   29.98S

$$
WYZ014>020-022>026-101>103-222200-
CENTRAL WYOMING

CITY           SKY/WX    TMP DP  RH WIND       PRES   REMARKS
BIG PINEY      FAIR      77  28  16 NW18      30.12S
PINEDALE       FAIR      72  23  16 W23G30    30.13S
DUBOIS         FAIR      70  18  13 NW20G25   30.09S
LANDER         FAIR      77  37  23 VRB3      29.98F
RIVERTON       FAIR      78  32  18 E7        29.97F
CASPER         FAIR      75  37  25 VRB3      30.00F
DOUGLAS        FAIR      74  38  27 N9G23     29.99F

$$
WYZ021-027>030-104>119-222200-
SOUTHERN WYOMING

CITY           SKY/WX    TMP DP  RH WIND       PRES   REMARKS
EVANSTON       FAIR      76  35  22 W17G28    30.17S
KEMMERER         N/A     73  30  20 NW20G28   30.15F
FORT BRIDGER   FAIR      81  29  15 W22G29    30.16S
ROCK SPRINGS   FAIR      82  21  10 W26G39    30.05F
DIXON          FAIR      87  24  10 W21G28    30.05S
RAWLINS        FAIR      82  31  15 W21G30    30.03F
SARATOGA       FAIR      82  28  14 W12G25    30.05F
LARAMIE        FAIR      85  23  10 NW24G37   30.03F
CHEYENNE       FAIR      76  41  28 N12G21    30.01S
TORRINGTON     FAIR      82  36  19 N14       29.90F
PINE BLUFFS    FAIR      81  34  18 NE21G28   29.94F

$$




USA.gov is the U.S. government's official web portal to all federal, state and local government web resources and services.